Flag for Norway Weather past 2 weeks in Kragerø, Norway

Now
56 °F

Cool.


Feels Like: 56 °F
Forecast: 49 / 64 °F
Wind: 3 mph from South

Location: Jomfruland Fyr

Current Time: Sep 3, 2015 at 5:30:48 AM

Latest Report: Sep 3, 2015 at 4:00 AM


Visibility: N/A

Pressure: 29.73 "Hg

Humidity: 90%

Dew point: 53 °F

Location of KragerøLocation

Historic Weather in Kragerø — Graph

°F

Kragerø temperature yesterday

Maximum temperature yesterday: 60 °F (at 9:00 AM)
Minimum temperature yesterday: 56 °F (at 4:00 AM)
Average temperature yesterday: 58 °F

Past Weeks' High & Low Weather Summary

 TemperatureHumidityPressure
High74 °F (Aug 23, 5:00 PM)95% (Aug 25, 12:00 PM)30.36 "Hg (Aug 25, 12:00 PM)
Low55 °F (Aug 31, 6:00 AM)43% (Aug 20, 5:00 PM)29.50 "Hg (Aug 27, 2:00 PM)
Average62 °F78%29.96 "Hg
* Reported Aug 19 4:00 AM — Sep 3 4:00 AM, Kragerø, Weather by CustomWeather, © 2015

Note: Actual official high and low records may vary slightly from our data, if they occured in-between our weather recording intervals... More about our weather records

Advertising

Kragerø weather history for previous 24 hours

 ConditionsComfort  
Time TempWeatherWind HumidityBarometerVisibility
4:00 AM
Thu, Sep 3
56 °FCool.3 mph90%29.73 "HgN/A
3:00 AM58 °FCool.8 mph83%29.72 "HgN/A
2:00 AM56 °FCool.6 mph89%29.72 "HgN/A
1:00 AM58 °FCool.8 mph84%29.71 "HgN/A
12:00 AM58 °FCool.9 mph79%29.70 "HgN/A
11:00 PM
Wed, Sep 2
59 °FCool.8 mph81%29.68 "HgN/A
10:00 PM59 °FCool.9 mph84%29.68 "HgN/A
9:00 PM58 °FCool.3 mph88%29.68 "HgN/A
8:00 PM59 °FCool.6 mph84%29.66 "HgN/A
7:00 PM59 °FCool.6 mph83%29.65 "HgN/A
6:00 PM59 °FCool.5 mph88%29.64 "HgN/A
5:00 PM59 °FCool.5 mph88%29.64 "HgN/A
4:00 PM58 °FCool.5 mph91%29.64 "HgN/A
3:00 PM57 °FCool.5 mph91%29.63 "HgN/A
2:00 PM58 °FCool.6 mph90%29.63 "HgN/A
12:00 PM60 °FCool.6 mph84%29.61 "HgN/A
11:00 AM57 °FCool.5 mph90%29.61 "HgN/A
10:00 AM60 °FCool.6 mph80%29.59 "HgN/A
9:00 AM60 °FCool.6 mph78%29.57 "HgN/A
8:00 AM59 °FCool.7 mph76%29.56 "HgN/A
7:00 AM59 °FCool.6 mph82%29.54 "HgN/A
6:00 AM58 °FCool.10 mph94%29.50 "HgN/A
5:00 AM56 °FCool.9 mph94%29.53 "HgN/A
Weather by CustomWeather, © 2015

See weather overviewHow to use our weather pages